Location: Ocean City
(38.3360°N, 75.0850°W)
Time: 16:01:26
(UTC-05:00)

Explorer 11/Cluster Stage 4 - Pass Details

Date: 22 November 2019
Orbit: 467 x 1259 km, 28.8° (Epoch: 11 December)

Event Time Altitude Azimuth Distance (km) Brightness Sun altitude
Rises 22:59:11 0° 260° (W) 3,494 - -69.2°
Reaches altitude 10° 23:02:19 10° 243° (WSW) 2,697 - -69.6°
Maximum altitude 23:06:58 20° 199° (SSW) 2,231 - -70.0°
Drops below altitude 10° 23:12:10 10° 155° (SSE) 3,055 - -70.5°
Sets 23:16:01 0° 141° (SE) 4,109 - -70.8°
